| time (UTC) | temp F | wind direction | speed MPH | gust MPH | rain 1hr in | rain 24hr in | rain mn in | humidity % | barometer mb |
| 20260831160134 | 79 | 0 | 0.0 | 0.0 | 0.00 | 0.01 | 0.00 | 84 | 1021.5 |
| 20260831154631 | 76 | 0 | 0.0 | 0.0 | 0.00 | 0.01 | 0.00 | 90 | 1021.4 |
| 20260831153132 | 74 | 0 | 0.0 | 0.0 | 0.00 | 0.01 | 0.00 | 92 | 1021.5 |
| 20260831151607 | 74 | 0 | 0.0 | 0.0 | 0.00 | 0.01 | 0.00 | 93 | 1021.4 |
| 20260831150104 | 73 | 0 | 0.0 | 0.0 | 0.00 | 0.01 | 0.00 | 94 | 1021.7 |
| 20260831144607 | 73 | 0 | 0.0 | 0.0 | 0.00 | 0.01 | 0.00 | 95 | 1021.7 |
| 20260831143109 | 72 | 0 | 0.0 | 0.0 | 0.00 | 0.01 | 0.00 | 96 | 1021.8 |
| 20260831141603 | 72 | 0 | 0.0 | 0.0 | 0.00 | 0.01 | 0.00 | 97 | 1021.5 |
| 20260831140104 | 71 | 0 | 0.0 | 0.0 | 0.00 | 0.01 | 0.00 | 97 | 1021.4 |
| 20260831134608 | 71 | 0 | 0.0 | 0.0 | 0.00 | 0.01 | 0.00 | 97 | 1021.3 |
| 20260831133102 | 70 | 0 | 0.0 | 0.0 | 0.00 | 0.01 | 0.00 | 97 | 1021.3 |
| 20260831131605 | 69 | 0 | 0.0 | 0.0 | 0.00 | 0.01 | 0.00 | 97 | 1021.3 |
| 20260831130135 | 69 | 0 | 0.0 | 0.0 | 0.00 | 0.01 | 0.00 | 97 | 1021.2 |
| 20260831124603 | 68 | 0 | 0.0 | 0.0 | 0.00 | 0.01 | 0.00 | 97 | 1021.1 |
| 20260831123109 | 68 | 0 | 0.0 | 0.0 | 0.00 | 0.01 | 0.00 | 97 | 1021.1 |
| 20260831121609 | 67 | 0 | 0.0 | 0.0 | 0.00 | 0.01 | 0.00 | 97 | 1021.0 |
| 20260831120145 | 66 | 0 | 0.0 | 0.0 | 0.00 | 0.01 | 0.00 | 96 | 1020.9 |
| 20260831114605 | 66 | 0 | 0.0 | 0.0 | 0.00 | 0.01 | 0.00 | 96 | 1020.7 |
| 20260831113103 | 66 | 0 | 0.0 | 0.0 | 0.00 | 0.01 | 0.00 | 96 | 1020.8 |
| 20260831111603 | 65 | 0 | 0.0 | 0.0 | 0.00 | 0.01 | 0.00 | 96 | 1020.4 |
| 20260831104608 | 66 | 0 | 0.0 | 0.0 | 0.00 | 0.01 | 0.00 | 96 | 1020.4 |
| 20260831103100 | 66 | 0 | 0.0 | 0.0 | 0.00 | 0.01 | 0.00 | 96 | 1020.2 |
| 20260831101624 | 66 | 0 | 0.0 | 0.0 | 0.00 | 0.01 | 0.00 | 96 | 1020.1 |
| 20260831094609 | 66 | 0 | 0.0 | 0.0 | 0.00 | 0.01 | 0.00 | 96 | 1020.0 |
| 20260831093104 | 66 | 0 | 0.0 | 0.0 | 0.00 | 0.01 | 0.00 | 95 | 1020.0 |
| 20260831091606 | 66 | 0 | 0.0 | 0.0 | 0.00 | 0.01 | 0.00 | 95 | 1020.0 |
| 20260831090113 | 66 | 0 | 0.0 | 0.0 | 0.00 | 0.01 | 0.00 | 95 | 1020.0 |
| 20260831084606 | 67 | 0 | 0.0 | 0.0 | 0.00 | 0.01 | 0.00 | 95 | 1019.9 |
| 20260831083103 | 67 | 0 | 0.0 | 0.0 | 0.00 | 0.01 | 0.00 | 95 | 1019.8 |
| 20260831081605 | 67 | 0 | 0.0 | 0.0 | 0.00 | 0.01 | 0.00 | 95 | 1019.7 |
| 20260831080108 | 67 | 0 | 0.0 | 0.0 | 0.00 | 0.01 | 0.00 | 95 | 1019.8 |
| 20260831074603 | 67 | 0 | 0.0 | 0.0 | 0.00 | 0.01 | 0.00 | 95 | 1019.7 |
| 20260831073118 | 67 | 0 | 0.0 | 0.0 | 0.00 | 0.01 | 0.00 | 95 | 1019.6 |
| 20260831071609 | 67 | 0 | 0.0 | 0.0 | 0.00 | 0.01 | 0.00 | 94 | 1019.5 |
| 20260831070138 | 68 | 0 | 0.0 | 0.0 | 0.00 | 0.01 | 0.00 | 94 | 1019.7 |
| 20260831064606 | 68 | 0 | 0.0 | 0.0 | 0.00 | 0.01 | 0.00 | 94 | 1019.6 |
| 20260831063107 | 68 | 0 | 0.0 | 0.0 | 0.00 | 0.01 | 0.00 | 94 | 1019.6 |
| 20260831061610 | 68 | 0 | 0.0 | 0.0 | 0.00 | 0.01 | 0.00 | 94 | 1019.8 |
| 20260831060111 | 68 | 0 | 0.0 | 0.0 | 0.00 | 0.01 | 0.00 | 94 | 1019.9 |
| 20260831054606 | 69 | 0 | 0.0 | 0.0 | 0.00 | 0.01 | 0.00 | 94 | 1020.0 |
| 20260831053109 | 69 | 0 | 0.0 | 0.0 | 0.00 | 0.01 | 0.00 | 94 | 1020.0 |
| 20260831051621 | 69 | 0 | 0.0 | 0.0 | 0.00 | 0.01 | 0.00 | 94 | 1020.2 |
| 20260831050110 | 69 | 0 | 0.0 | 0.0 | 0.00 | 0.01 | 0.00 | 94 | 1020.2 |
| 20260831044605 | 70 | 0 | 0.0 | 0.0 | 0.00 | 0.01 | 0.00 | 94 | 1020.3 |
| 20260831043104 | 70 | 0 | 0.0 | 0.0 | 0.00 | 0.01 | 0.00 | 95 | 1020.1 |
| 20260831041605 | 70 | 0 | 0.0 | 0.0 | 0.00 | 0.01 | 0.00 | 95 | 1020.2 |
| 20260831040106 | 70 | 0 | 0.0 | 0.0 | 0.00 | 0.01 | 0.00 | 94 | 1020.4 |
| 20260831034603 | 70 | 0 | 0.0 | 0.0 | 0.00 | 0.01 | 0.01 | 94 | 1020.6 |
| 20260831033105 | 70 | 0 | 0.0 | 0.0 | 0.00 | 0.01 | 0.01 | 94 | 1020.6 |
| 20260831031559 | 70 | 0 | 0.0 | 0.0 | 0.00 | 0.01 | 0.01 | 94 | 1020.7 |
| 20260831030105 | 70 | 0 | 0.0 | 0.0 | 0.00 | 0.01 | 0.01 | 94 | 1020.7 |
| 20260831024618 | 70 | 0 | 0.0 | 0.0 | 0.00 | 0.01 | 0.01 | 94 | 1020.6 |
| 20260831023107 | 71 | 0 | 0.0 | 0.0 | 0.00 | 0.01 | 0.01 | 93 | 1020.5 |
| 20260831021605 | 71 | 0 | 0.0 | 0.0 | 0.00 | 0.01 | 0.01 | 93 | 1020.5 |
| 20260831020103 | 71 | 0 | 0.0 | 0.0 | 0.00 | 0.01 | 0.01 | 92 | 1020.6 |
| 20260831014600 | 71 | 0 | 0.0 | 0.0 | 0.00 | 0.01 | 0.01 | 91 | 1020.5 |
| 20260831013102 | 71 | 0 | 0.0 | 1.0 | 0.00 | 0.01 | 0.01 | 91 | 1020.5 |
| 20260831011602 | 72 | 0 | 0.0 | 0.0 | 0.00 | 0.01 | 0.01 | 90 | 1020.5 |
| 20260831010132 | 72 | 0 | 0.0 | 0.0 | 0.00 | 0.01 | 0.01 | 90 | 1020.1 |
| 20260831004601 | 73 | 0 | 0.0 | 1.0 | 0.00 | 0.01 | 0.01 | 89 | 1020.0 |
| 20260831003059 | 74 | 0 | 0.0 | 0.0 | 0.00 | 0.01 | 0.01 | 88 | 1019.8 |
| 20260831001610 | 74 | 0 | 0.0 | 1.0 | 0.00 | 0.01 | 0.01 | 87 | 1019.9 |
| 20260831000106 | 75 | 0 | 0.0 | 0.0 | 0.00 | 0.01 | 0.01 | 84 | 1019.7 |
| 20260830234604 | 76 | 0 | 0.0 | 1.0 | 0.00 | 0.01 | 0.01 | 83 | 1019.5 |
| 20260830233059 | 77 | 0 | 0.0 | 1.0 | 0.00 | 0.01 | 0.01 | 84 | 1019.5 |
| 20260830231603 | 77 | 0 | 0.0 | 2.0 | 0.00 | 0.01 | 0.01 | 82 | 1019.4 |
| 20260830230058 | 77 | 360 | 0.0 | 1.0 | 0.00 | 0.01 | 0.01 | 83 | 1019.1 |
| 20260830224610 | 77 | 0 | 0.0 | 1.0 | 0.00 | 0.01 | 0.01 | 84 | 1019.2 |
| 20260830223104 | 77 | 360 | 1.0 | 2.0 | 0.00 | 0.01 | 0.01 | 84 | 1019.3 |
| 20260830221602 | 78 | 0 | 0.0 | 1.0 | 0.00 | 0.01 | 0.01 | 82 | 1019.3 |
| 20260830220124 | 79 | 0 | 0.0 | 1.0 | 0.00 | 0.01 | 0.01 | 79 | 1019.5 |
| 20260830214603 | 79 | 0 | 0.0 | 1.0 | 0.00 | 0.01 | 0.01 | 79 | 1019.6 |
| 20260830213108 | 79 | 0 | 0.0 | 2.0 | 0.00 | 0.01 | 0.01 | 76 | 1019.6 |
| 20260830211605 | 80 | 0 | 0.0 | 2.0 | 0.00 | 0.01 | 0.01 | 73 | 1019.5 |
| 20260830210105 | 82 | 147 | 1.0 | 6.0 | 0.00 | 0.01 | 0.01 | 69 | 1019.8 |
| 20260830204601 | 82 | 0 | 0.0 | 2.0 | 0.01 | 0.01 | 0.01 | 71 | 1019.6 |
| 20260830203123 | 81 | 0 | 0.0 | 3.0 | 0.01 | 0.01 | 0.01 | 75 | 1019.5 |
| 20260830201605 | 80 | 0 | 0.0 | 2.0 | 0.01 | 0.01 | 0.01 | 75 | 1019.5 |
| 20260830200105 | 83 | 103 | 0.0 | 1.0 | 0.01 | 0.01 | 0.01 | 69 | 1019.8 |
| 20260830194602 | 87 | 280 | 2.0 | 8.0 | 0.00 | 0.00 | 0.00 | 68 | 1019.9 |
| 20260830193101 | 87 | 337 | 0.0 | 3.0 | 0.00 | 0.00 | 0.00 | 64 | 1020.0 |
| 20260830191602 | 86 | 244 | 1.0 | 4.0 | 0.00 | 0.00 | 0.00 | 65 | 1020.0 |
| 20260830184608 | 85 | 0 | 0.0 | 7.0 | 0.00 | 0.00 | 0.00 | 68 | 1020.3 |
| 20260830183123 | 87 | 316 | 2.0 | 10.0 | 0.00 | 0.00 | 0.00 | 64 | 1020.7 |
| 20260830181623 | 88 | 91 | 1.0 | 8.0 | 0.00 | 0.00 | 0.00 | 62 | 1021.0 |
| 20260830180111 | 87 | 0 | 0.0 | 0.0 | 0.00 | 0.00 | 0.00 | 65 | 1021.0 |
| 20260830174601 | 87 | 0 | 0.0 | 0.0 | 0.00 | 0.00 | 0.00 | 66 | 1021.4 |
| 20260830173136 | 87 | 0 | 0.0 | 0.0 | 0.00 | 0.00 | 0.00 | 67 | 1021.5 |
| 20260830171605 | 86 | 0 | 0.0 | 0.0 | 0.00 | 0.00 | 0.00 | 67 | 1021.9 |
| 20260830170059 | 85 | 0 | 0.0 | 0.0 | 0.00 | 0.00 | 0.00 | 70 | 1022.0 |
| 20260830164608 | 86 | 0 | 0.0 | 0.0 | 0.00 | 0.00 | 0.00 | 68 | 1022.1 |
| 20260830163106 | 86 | 0 | 0.0 | 0.0 | 0.00 | 0.00 | 0.00 | 66 | 1022.2 |
| 20260830161634 | 86 | 0 | 0.0 | 0.0 | 0.00 | 0.00 | 0.00 | 68 | 1022.0 |